Home   Weather   Maputo   Past weeks

Flag for Mozambique Past Weather in Maputo, Mozambique — Yesterday and Last 2 Weeks

Now
64 °F

Passing clouds.


Feels Like: 64 °F
Forecast: 59 / 71 °F
Wind: 17 mph from Southwest

Location: Maputo / Mavalane

Current Time: Aug 17, 2017 at 9:44:18 pm

Latest Report: Aug 17, 2017 at 9:00 pm


Visibility: N/A

Pressure: 29.98 "Hg

Humidity: 56%

Dew Point: 48 °F

Location of MaputoLocation

Past Weather in Maputo — Graph

°F

Maputo Temperature Yesterday

Maximum temperature yesterday: 81 °F (at 1:00 pm)
Minimum temperature yesterday: 63 °F (at 7:00 am)
Average temperature yesterday: 74 °F

High & Low Weather Summary for the Past Weeks

 TemperatureHumidityPressure
High90 °F (Aug 15, 2:00 pm)100% (Aug 4, 12:00 pm)30.39 "Hg (Aug 4, 12:00 pm)
Low57 °F (Aug 10, 5:00 am)23% (Aug 16, 9:00 pm)29.62 "Hg (Aug 17, 12:00 am)
Average71 °F69%30.13 "Hg
* Reported Aug 2 7:00 pm — Aug 17 7:00 pm, Maputo. Weather by CustomWeather, © 2017

Note: Actual official high and low records may vary slightly from our data, if they occured in-between our weather recording intervals... More about our weather records

Advertising

Maputo Weather History for the Previous 24 Hours

Scroll right to see more
 ConditionsComfort  
Time TempWeatherWind HumidityBarometerVisibility
7:00 pm
Thu, Aug 17
66 °FPassing clouds.8 mph56%29.95 "HgN/A
1:00 pm73 °FPartly sunny.8 mph50%29.83 "HgN/A
12:00 pm73 °FPartly sunny.8 mph53%29.83 "HgN/A
11:00 am73 °FScattered clouds.8 mph53%29.92 "HgN/A
10:00 am72 °FScattered clouds.12 mph61%29.86 "HgN/A
9:00 am68 °FPassing clouds.8 mph73%29.83 "HgN/A
8:00 am66 °FPassing clouds.9 mph78%29.83 "HgN/A
7:00 am64 °FPassing clouds.8 mph83%29.80 "HgN/A
6:00 am63 °FPassing clouds.12 mph88%29.80 "HgN/A
5:00 am64 °FPassing clouds.12 mph83%29.77 "HgN/A
4:00 am68 °FPassing clouds.13 mph38%29.71 "HgN/A
3:00 am72 °FPassing clouds.12 mph33%29.71 "HgN/A
2:00 am72 °FPassing clouds.15 mph33%29.62 "HgN/A
1:00 am73 °FClear.14 mph29%29.62 "Hg10 mi
12:00 am77 °FClear.15 mph26%29.62 "Hg10 mi
11:00 pm
Wed, Aug 16
77 °FClear.18 mph24%29.65 "Hg10 mi
10:00 pm77 °FClear.14 mph26%29.65 "Hg10 mi
9:00 pm79 °FClear.17 mph23%29.65 "Hg10 mi
Weather by CustomWeather, © 2017

See weather overviewHow to use our weather pages